Total_Precipitation_Accumulation
1.77 1.75 1.36 0.86 0.68 0.60 0.62 0.60 0.52 0.52 0.49 0.58 0.56 0.53 0.49 0.50 0.58 0.61 0.62 0.67 0.81 1.00 1.22 1.38 1.72 1.96 2.20 2.50 2.82 3.07 3.18 3.31 3.43 3.58 3.65 3.52 3.43 3.25 2.99 2.71 2.55 2.50 2.22 2.18
1.71 1.32 0.75 0.55 0.61 0.67 0.71 0.72 0.55 0.52 0.52 0.64 0.65 0.59 0.52 0.56 0.64 0.62 0.62 0.63 0.70 0.87 1.08 1.29 1.55 1.76 2.01 2.28 2.48 2.89 3.12 3.14 3.14 3.15 3.33 3.49 3.66 3.61 3.44 3.18 2.83 2.67 2.50 2.29
1.32 0.86 0.63 0.68 0.79 0.85 0.76 0.68 0.57 0.61 0.64 0.71 0.73 0.75 0.64 0.66 0.59 0.61 0.65 0.67 0.72 0.77 0.93 1.13 1.41 1.62 1.83 2.09 2.27 2.49 2.81 3.01 3.08 3.15 3.45 3.65 3.78 3.66 3.48 3.27 2.98 2.71 2.58 2.41
1.14 0.71 0.75 0.86 0.85 0.83 0.80 0.48 0.53 0.67 0.89 1.00 0.86 1.04 0.82 0.71 0.58 0.59 0.65 0.67 0.73 0.79 0.91 1.04 1.20 1.45 1.69 1.86 2.07 2.28 2.54 2.83 3.05 3.20 3.30 3.31 3.28 3.21 3.05 3.04 3.08 2.90 2.64 2.52
1.20 0.81 0.87 0.96 0.75 0.74 0.71 0.46 0.55 0.76 0.98 1.06 0.76 0.87 0.80 0.57 0.58 0.60 0.61 0.62 0.65 0.75 0.84 0.91 1.01 1.23 1.45 1.65 1.88 2.13 2.33 2.57 2.86 3.10 3.08 3.12 3.04 2.93 2.95 2.91 2.92 2.93 2.75 2.58
0.90 0.79 0.97 0.92 0.65 0.71 0.74 0.79 0.90 1.01 1.44 1.52 0.68 0.69 0.78 0.67 0.70 0.65 0.60 0.60 0.62 0.69 0.79 0.86 0.92 1.09 1.29 1.48 1.64 1.92 2.20 2.35 2.57 2.89 2.90 2.79 2.67 2.58 2.70 2.79 2.73 2.77 2.71 2.57
1.31 1.06 0.93 0.89 0.94 0.98 1.08 1.54 2.05 2.09 2.03 1.24 0.46 0.53 0.74 0.63 0.63 0.70 0.63 0.56 0.56 0.59 0.68 0.74 0.76 0.91 1.16 1.35 1.50 1.67 1.98 2.18 2.31 2.55 2.71 2.71 2.59 2.45 2.41 2.51 2.59 2.64 2.63 2.42
1.42 1.31 0.93 0.96 1.11 1.24 1.14 1.38 1.64 1.47 1.02 0.59 0.42 0.56 0.64 0.49 0.48 0.50 0.50 0.47 0.48 0.54 0.59 0.65 0.71 0.81 0.99 1.20 1.37 1.48 1.67 1.94 2.08 2.22 2.39 2.59 2.51 2.39 2.29 2.24 2.37 2.48 2.50 2.42
1.09 1.07 0.67 0.71 0.75 0.87 1.11 1.15 0.99 1.28 0.88 0.63 0.58 0.59 0.50 0.33 0.34 0.37 0.40 0.39 0.44 0.51 0.55 0.62 0.68 0.76 0.85 1.00 1.19 1.31 1.42 1.66 1.82 1.94 2.13 2.33 2.29 2.12 2.03 1.97 2.01 2.11 2.20 2.24
1.03 1.11 0.69 0.68 0.89 0.92 0.96 0.96 1.19 1.77 1.45 0.88 0.58 0.50 0.57 0.43 0.40 0.39 0.40 0.43 0.46 0.48 0.48 0.55 0.65 0.73 0.79 0.90 1.03 1.15 1.30 1.51 1.66 1.76 1.91 2.02 2.05 1.96 1.83 1.76 1.74 1.79 1.82 1.86
0.92 1.22 0.92 0.89 1.14 0.95 0.93 1.11 1.32 1.41 1.20 1.08 0.72 0.62 0.57 0.49 0.45 0.44 0.44 0.47 0.48 0.47 0.49 0.53 0.59 0.70 0.79 0.89 0.99 1.07 1.15 1.32 1.52 1.63 1.67 1.70 1.74 1.80 1.72 1.65 1.56 1.54 1.60 1.67
0.82 1.25 1.03 0.74 0.66 0.57 0.76 0.90 1.11 1.52 1.15 0.85 0.76 0.65 0.43 0.39 0.42 0.43 0.44 0.47 0.45 0.42 0.45 0.50 0.56 0.67 0.76 0.83 0.94 1.05 1.09 1.20 1.33 1.43 1.50 1.51 1.56 1.64 1.61 1.44 1.37 1.36 1.35 1.43
1.07 1.54 1.39 1.01 0.93 0.85 0.88 0.75 0.85 1.22 1.47 1.12 0.93 0.66 0.37 0.29 0.34 0.38 0.42 0.45 0.41 0.39 0.40 0.43 0.50 0.61 0.72 0.79 0.86 0.94 1.00 1.09 1.21 1.25 1.35 1.41 1.48 1.59 1.64 1.48 1.29 1.24 1.21 1.21
1.34 1.53 1.28 1.12 0.94 0.91 0.88 0.67 0.76 1.44 1.81 1.06 0.66 0.53 0.40 0.36 0.39 0.42 0.45 0.48 0.44 0.41 0.41 0.44 0.50 0.57 0.65 0.74 0.81 0.84 0.89 0.98 1.07 1.12 1.21 1.28 1.33 1.45 1.57 1.57 1.35 1.25 1.21 1.16
1.15 1.39 0.89 0.63 0.51 0.63 0.69 0.64 0.73 1.10 1.10 1.01 0.61 0.50 0.55 0.54 0.55 0.54 0.50 0.46 0.43 0.41 0.42 0.44 0.52 0.59 0.59 0.63 0.71 0.76 0.77 0.84 0.93 0.98 1.07 1.20 1.23 1.27 1.43 1.53 1.51 1.42 1.36 1.26
0.85 1.16 0.89 0.66 0.45 0.53 0.60 0.58 0.64 0.73 0.71 0.71 0.59 0.62 0.54 0.52 0.48 0.49 0.50 0.48 0.50 0.46 0.45 0.45 0.50 0.58 0.58 0.60 0.68 0.74 0.75 0.78 0.85 0.92 0.97 1.06 1.09 1.15 1.24 1.34 1.37 1.41 1.45 1.41
0.66 0.93 1.15 0.86 0.51 0.68 0.88 0.77 0.74 0.71 0.62 0.61 0.71 0.65 0.48 0.47 0.49 0.54 0.52 0.48 0.51 0.49 0.44 0.43 0.47 0.54 0.59 0.58 0.60 0.68 0.75 0.78 0.84 0.92 0.95 0.98 1.00 1.01 1.09 1.17 1.24 1.35 1.45 1.48
0.53 0.78 1.24 0.98 0.76 1.05 0.87 0.61 0.59 0.61 0.61 0.58 0.58 0.50 0.48 0.52 0.54 0.56 0.55 0.50 0.45 0.43 0.40 0.38 0.42 0.46 0.55 0.56 0.54 0.56 0.60 0.68 0.75 0.82 0.84 0.87 0.96 1.01 1.05 1.16 1.32 1.41 1.49 1.58
0.32 0.75 1.27 1.11 0.85 0.61 0.41 0.34 0.47 0.59 0.61 0.52 0.47 0.40 0.38 0.40 0.43 0.49 0.51 0.49 0.46 0.44 0.42 0.39 0.39 0.42 0.45 0.50 0.52 0.54 0.56 0.64 0.70 0.78 0.81 0.81 0.89 1.04 1.17 1.28 1.42 1.53 1.61 1.66
0.33 0.64 1.26 1.15 1.00 0.63 0.39 0.21 0.25 0.46 0.67 0.41 0.37 0.40 0.39 0.37 0.49 0.51 0.47 0.45 0.42 0.38 0.39 0.38 0.37 0.36 0.39 0.44 0.47 0.52 0.58 0.66 0.76 0.86 0.93 0.96 1.02 1.15 1.28 1.36 1.43 1.46 1.50 1.52
0.54 0.85 1.10 0.97 0.95 0.57 0.34 0.19 0.20 0.61 0.77 0.38 0.33 0.39 0.42 0.52 0.63 0.53 0.44 0.42 0.40 0.37 0.38 0.38 0.40 0.45 0.48 0.51 0.56 0.63 0.68 0.82 0.94 0.98 1.05 1.11 1.13 1.14 1.14 1.17 1.16 1.10 1.07 1.08
0.50 0.66 0.69 0.72 0.97 0.72 0.34 0.27 0.53 0.73 0.47 0.38 0.34 0.35 0.41 0.46 0.45 0.43 0.40 0.39 0.38 0.37 0.36 0.39 0.46 0.57 0.61 0.66 0.75 0.81 0.85 0.92 0.97 1.03 1.06 1.07 1.08 1.08 1.04 0.99 0.92 0.83 0.77 0.77
0.48 0.64 0.70 0.72 0.81 0.68 0.49 0.52 0.56 0.47 0.44 0.40 0.40 0.39 0.40 0.42 0.43 0.42 0.41 0.38 0.36 0.35 0.36 0.39 0.45 0.49 0.54 0.61 0.69 0.77 0.78 0.78 0.83 0.90 0.94 0.95 0.91 0.90 0.88 0.84 0.80 0.76 0.72 0.70
0.45 0.37 0.49 0.57 0.55 0.46 0.40 0.34 0.33 0.35 0.41 0.40 0.40 0.39 0.37 0.40 0.39 0.38 0.36 0.36 0.37 0.37 0.37 0.38 0.39 0.40 0.42 0.45 0.52 0.59 0.58 0.59 0.63 0.70 0.76 0.80 0.81 0.80 0.78 0.74 0.72 0.73 0.73 0.70
0.45 0.41 0.48 0.53 0.43 0.35 0.32 0.30 0.32 0.30 0.28 0.28 0.29 0.32 0.36 0.36 0.37 0.37 0.37 0.36 0.37 0.39 0.39 0.40 0.41 0.44 0.47 0.46 0.47 0.49 0.50 0.54 0.58 0.60 0.65 0.67 0.70 0.74 0.76 0.74 0.73 0.74 0.75 0.77
0.43 0.51 0.62 0.61 0.42 0.45 0.40 0.30 0.26 0.26 0.26 0.24 0.24 0.26 0.28 0.31 0.36 0.37 0.39 0.39 0.39 0.40 0.38 0.36 0.38 0.42 0.46 0.47 0.48 0.49 0.49 0.52 0.58 0.63 0.64 0.65 0.69 0.73 0.73 0.73 0.75 0.79 0.77 0.82